Theta_e
301 301 301 299 297 297 297 299 297 297 296 296 297 295 294 293 293 292 292 292 291 291 291 291 290 290 290 290 290 290 290 291 291 292 293 293 294 294 295 296 296 297 299 301
302 301 299 298 299 298 298 298 298 296 296 297 295 294 293 293 293 293 293 292 292 291 291 290 290 290 290 289 289 290 290 291 291 292 292 293 293 294 295 296 296 296 298 299
302 302 302 301 301 300 298 296 297 296 297 296 295 294 293 293 293 293 292 292 291 291 290 290 290 290 289 289 290 290 290 290 291 291 292 292 293 294 294 295 296 296 296 297
303 302 304 303 299 297 297 296 296 297 299 295 294 294 294 294 294 293 292 291 291 290 290 290 289 289 289 289 289 289 289 289 290 291 291 292 293 294 294 294 295 295 296 295
302 302 303 303 300 298 296 296 297 297 296 294 295 294 295 294 293 293 292 291 290 290 290 289 289 289 289 289 288 288 289 289 290 291 291 292 293 293 294 294 294 295 295 295
302 302 304 302 299 296 295 298 297 295 295 295 295 296 296 294 293 292 291 290 290 290 289 289 289 289 288 288 288 287 288 289 289 290 291 292 293 292 293 293 293 295 294 293
303 304 304 304 299 295 297 300 297 296 296 296 297 295 294 293 292 291 290 290 290 289 289 289 289 288 288 288 288 287 287 288 288 289 290 291 292 293 292 291 292 292 292 292
305 304 305 300 297 296 299 298 297 296 296 295 295 294 293 292 291 290 290 290 289 289 289 289 288 287 287 287 287 287 287 288 288 289 289 290 291 292 291 290 290 290 290 290
308 307 303 301 299 298 297 297 296 296 295 294 294 293 292 291 291 290 290 289 288 288 288 288 287 287 287 287 286 286 287 287 288 289 289 289 291 291 290 289 289 288 288 288
303 304 303 302 301 299 298 297 296 295 294 294 293 292 291 291 290 290 289 288 288 287 287 286 286 286 286 286 286 286 287 288 288 288 289 289 289 290 290 288 288 287 286 286
305 304 303 303 302 299 299 297 296 294 294 293 292 292 291 290 290 289 288 287 287 286 286 286 285 285 285 285 284 285 286 287 287 288 289 288 289 289 289 287 287 286 285 285
305 304 302 303 299 299 298 297 296 294 294 292 292 291 290 290 289 287 287 286 286 285 285 285 285 285 284 284 284 285 285 286 287 288 288 288 288 288 288 287 286 285 285 284
305 304 301 300 297 297 297 296 295 294 293 292 291 290 290 289 288 287 287 286 285 285 285 285 285 284 284 283 284 284 285 285 286 287 287 287 286 287 287 285 286 286 285 284
304 303 301 298 296 296 295 294 294 293 292 292 291 290 290 289 288 287 286 285 285 285 285 285 285 284 284 284 284 284 285 284 285 286 286 286 287 286 286 286 285 285 285 284
303 302 301 298 296 295 294 294 293 292 292 291 291 290 289 288 287 286 285 284 285 284 284 284 284 283 283 284 284 285 285 284 285 286 286 286 286 286 285 285 284 284 283 282
301 302 300 298 296 296 295 294 293 293 292 292 291 290 289 288 287 286 285 284 284 284 283 282 282 281 281 282 284 285 285 285 284 285 285 284 283 283 283 282 282 282 282 281
302 301 300 299 297 295 295 294 293 292 292 292 291 290 289 288 286 286 285 284 283 282 282 282 281 281 281 281 282 283 283 283 282 283 283 282 282 282 282 282 281 281 281 281
303 302 300 299 298 296 295 294 293 292 292 292 291 290 289 288 286 286 285 284 283 282 282 281 281 281 281 281 280 282 282 282 282 282 282 282 281 282 281 281 281 280 280 280
304 303 301 299 298 297 296 294 293 292 292 291 291 290 289 288 286 286 286 284 283 282 283 282 282 281 281 281 280 281 282 282 282 282 282 281 281 281 281 281 280 280 279 279
304 302 302 300 298 297 296 295 294 293 292 291 290 289 289 288 287 286 285 284 283 283 283 283 282 281 281 281 280 280 282 282 282 281 281 281 281 280 280 280 280 279 279 279
303 302 301 300 299 297 295 294 293 293 292 291 290 289 288 288 287 285 284 284 284 283 283 283 282 281 281 281 280 281 281 281 281 281 281 280 280 280 280 279 279 279 278 278
303 302 302 301 300 298 296 295 293 292 291 291 290 289 288 287 287 286 285 283 283 282 282 282 281 281 280 281 279 280 281 281 280 280 280 280 280 279 279 278 279 278 278 277
303 302 301 301 301 303 298 295 294 292 291 291 290 289 289 289 288 287 286 286 282 282 282 283 282 281 281 280 279 280 281 280 280 280 280 280 279 279 278 278 278 277 277 277
304 303 302 302 301 299 297 296 294 293 292 291 291 291 289 288 288 288 286 286 284 281 282 283 283 281 281 281 280 279 280 280 280 280 279 279 278 278 277 277 277 277 276 276
305 305 305 304 302 300 299 298 295 293 292 291 290 290 291 289 289 290 288 286 284 283 281 281 281 281 281 280 280 280 279 280 279 279 279 278 278 277 277 277 276 276 276 276
306 306 305 304 302 300 298 297 295 294 292 291 290 290 291 290 288 288 290 286 284 283 282 282 282 281 280 280 280 280 279 279 279 279 279 278 278 277 277 276 276 276 276 276
304 304 304 304 302 300 299 297 295 294 293 291 291 291 292 291 288 288 291 287 283 283 283 282 282 281 280 280 280 279 279 279 279 279 278 278 278 277 277 276 276 276 276 275
Wind_Speed
12 18 15 4 13 14 11 8 10 12 14 15 9 10 10 10 14 16 17 17 19 21 19 18 19 21 19 18 19 19 19 18 20 21 21 22 25 25 23 15 20 15 12 8
17 3 3 15 14 13 14 8 7 11 16 10 22 20 20 18 16 15 15 14 18 18 18 17 19 20 17 18 18 18 17 17 18 19 21 22 23 24 21 14 20 18 12 10
6 8 10 13 4 10 10 8 4 9 12 14 10 14 21 22 13 11 14 17 17 16 16 18 18 17 16 16 16 16 17 17 17 18 20 21 23 22 22 18 18 20 18 14
9 12 4 2 6 7 7 11 11 11 2 4 6 16 20 7 5 13 14 15 14 15 16 16 15 14 15 14 15 17 18 17 18 19 19 20 22 20 22 20 18 16 19 21
4 8 17 11 7 4 4 13 10 9 4 9 11 14 7 5 14 16 14 14 14 13 15 13 13 12 12 13 16 16 18 17 20 20 17 19 19 22 20 19 22 17 17 17
5 5 4 4 6 4 3 4 5 4 6 9 11 7 8 17 16 16 15 13 13 13 12 11 11 11 13 12 12 15 18 18 18 19 16 18 18 20 17 19 20 17 23 23
10 8 9 11 11 6 3 3 1 5 7 9 5 9 14 15 16 15 14 14 12 11 10 10 9 10 11 13 14 15 16 17 17 17 16 17 15 15 17 18 17 20 20 21
5 4 7 13 10 5 2 1 6 6 8 8 8 10 12 14 13 13 13 12 11 10 9 9 9 11 11 12 14 15 15 16 15 15 14 14 16 12 15 18 18 17 18 18
4 4 8 12 15 10 11 10 8 8 7 7 8 9 10 11 12 11 10 11 10 10 9 8 10 10 12 13 13 14 13 13 13 13 14 16 14 16 15 18 17 19 19 20
3 8 14 9 15 17 14 11 9 7 6 4 6 7 8 9 9 9 9 9 9 9 8 9 9 10 10 11 12 11 12 11 10 11 14 14 15 13 13 18 21 25 24 22
13 20 26 25 19 13 17 13 10 7 6 5 4 5 7 7 6 6 6 7 7 7 7 8 8 8 8 10 10 11 10 10 10 10 12 12 14 16 14 18 22 24 22 22
5 3 5 10 5 8 12 13 11 10 8 6 5 4 4 4 4 3 4 5 5 5 6 7 6 7 8 9 8 10 8 8 10 10 10 10 12 15 15 18 22 23 21 20
17 11 5 7 5 6 11 12 11 11 9 8 6 5 3 2 2 1 1 2 3 4 4 5 5 6 7 8 8 8 8 7 8 9 10 11 10 11 11 15 14 19 21 25
17 13 10 9 9 10 10 11 12 10 9 9 8 6 5 4 3 2 2 1 0 1 2 3 4 5 7 7 7 7 7 10 7 7 8 9 9 9 10 13 15 18 17 21
13 16 14 9 13 12 13 13 14 13 12 11 10 9 8 7 7 6 5 4 3 2 0 1 1 3 4 4 5 6 6 11 5 7 9 9 9 10 11 11 12 13 15 19
9 15 16 17 14 16 16 17 18 18 16 15 14 12 11 10 9 9 8 7 6 6 3 2 1 1 3 3 4 4 6 10 6 6 6 7 7 9 10 10 11 12 14 19
15 17 20 22 23 21 22 21 21 20 19 18 18 15 14 13 13 13 12 11 9 8 7 6 5 3 1 3 4 1 2 5 7 6 5 7 7 7 9 10 11 12 12 15
22 21 20 24 24 24 25 24 24 24 23 21 21 19 19 19 18 17 16 15 13 11 10 10 8 5 3 5 2 2 2 4 4 6 6 7 7 8 8 10 11 12 13 15
20 22 23 22 25 26 27 28 28 28 25 24 25 26 25 24 22 20 20 20 19 17 14 15 10 8 6 8 5 4 4 5 5 5 7 11 6 10 9 11 12 12 13 15
22 22 24 26 25 28 29 29 29 29 30 30 30 30 30 30 27 26 26 27 26 18 13 22 15 12 10 11 7 7 5 6 6 7 8 12 9 13 11 13 14 14 15 17
23 24 24 27 29 30 31 32 31 32 33 34 34 34 32 30 31 32 33 34 29 22 25 25 19 16 14 15 10 7 9 8 8 9 9 10 13 12 14 16 15 16 19 19
23 25 27 28 30 34 36 36 34 36 37 37 36 35 33 31 31 34 36 37 33 28 30 27 24 21 22 17 12 11 12 12 10 10 10 11 13 15 18 17 16 20 20 21
25 28 28 28 29 31 34 35 38 40 40 40 41 40 38 34 31 34 37 36 37 32 32 30 27 25 22 18 16 15 15 14 14 12 12 13 15 18 19 17 20 22 21 22
24 25 28 30 31 32 33 38 42 44 44 43 42 40 41 39 36 34 33 33 31 38 37 35 29 29 27 23 20 18 17 17 15 15 14 15 18 19 19 22 24 21 24 26
26 28 29 29 28 34 39 39 40 41 41 44 45 43 42 43 41 35 33 34 33 32 37 39 38 33 30 26 24 22 21 20 18 17 18 19 19 20 22 23 24 25 25 27
31 32 32 30 32 34 37 36 39 40 41 43 46 46 42 44 45 38 36 33 34 36 37 37 38 37 33 31 28 25 24 22 21 20 19 19 20 21 24 25 26 26 27 27
29 30 31 30 30 33 36 38 39 41 43 46 51 51 46 44 47 45 39 35 36 39 38 38 38 39 36 33 30 28 26 24 22 21 20 20 22 23 24 26 27 27 27 28
Wind_Direction
299 292 291 308 295 293 279 258 267 289 299 295 310 285 307 320 312 303 312 316 317 323 328 327 330 333 335 338 339 336 335 337 338 344 344 349 347 352 356 7 14 358 351 338
295 297 201 287 279 268 272 288 284 294 289 316 321 334 326 313 310 305 308 303 312 328 330 333 335 336 340 341 337 338 340 341 342 346 346 350 349 356 359 15 26 10 11 4
283 311 271 277 263 231 263 281 297 278 278 302 322 312 293 288 298 310 305 303 329 330 335 337 336 340 346 345 347 346 346 348 347 346 348 350 351 1 6 21 29 25 28 28
288 308 288 156 188 176 223 263 264 263 169 160 258 291 302 35 326 299 318 328 331 335 338 335 338 346 348 353 353 352 351 347 346 350 352 348 349 2 1 21 24 34 29 34
288 302 280 285 154 225 284 293 284 270 333 296 301 308 340 345 328 323 327 336 336 335 333 334 344 348 350 355 353 349 348 354 349 350 352 350 354 357 7 25 26 28 34 34
299 296 289 49 144 113 323 262 139 254 309 315 323 313 329 319 324 333 335 333 332 332 330 337 347 354 352 344 351 352 346 350 351 347 355 359 354 358 13 19 21 14 23 25
247 254 262 260 130 139 268 51 14 311 309 314 331 304 309 321 331 331 331 330 331 332 334 340 345 350 342 343 349 346 344 349 351 353 354 351 4 5 4 13 20 20 26 22
230 254 265 112 128 198 55 249 295 300 310 322 312 314 321 329 332 334 332 333 334 336 338 337 346 345 336 338 339 340 340 346 351 356 354 2 4 13 10 10 15 14 11 11
238 253 142 198 224 219 249 265 287 290 303 311 317 322 330 331 337 338 338 337 337 335 332 335 336 333 332 335 337 337 341 346 351 357 8 359 13 13 13 10 8 8 10 5
279 259 255 292 241 235 246 246 262 271 287 294 309 320 326 336 340 341 343 343 339 338 335 333 335 337 339 339 341 343 344 349 354 4 7 11 8 13 15 11 9 7 10 10
253 268 271 273 250 253 235 234 239 250 251 270 293 309 322 331 340 345 347 348 348 348 338 337 336 341 346 346 350 353 349 355 7 3 0 12 9 10 18 22 14 7 11 16
245 241 316 299 260 267 233 225 227 232 232 248 262 284 303 314 330 348 357 352 355 353 348 346 349 348 345 353 5 359 359 2 359 5 9 13 8 12 13 9 5 360 7 10
256 273 268 272 267 236 216 219 224 221 226 235 241 251 254 263 267 357 355 356 7 3 4 3 6 355 356 8 15 12 14 355 7 16 14 11 13 7 358 350 8 6 358 351
239 252 251 239 237 219 216 222 221 217 223 227 229 236 230 220 234 211 214 205 123 22 16 20 15 7 4 15 18 16 32 15 33 18 10 7 7 5 359 358 355 357 357 340
244 232 239 246 229 228 225 219 219 222 226 226 225 230 229 223 221 210 204 199 185 181 207 46 11 357 357 18 9 5 8 13 31 9 354 4 357 354 353 351 353 351 342 336
249 232 232 231 234 230 226 222 224 228 230 230 226 230 229 225 219 212 208 211 185 206 201 213 222 326 359 24 80 357 337 343 17 2 345 344 350 349 346 346 345 345 345 334
233 229 225 231 231 231 230 227 227 229 230 231 228 229 225 221 217 217 213 220 210 213 214 235 244 255 324 321 124 22 338 316 343 334 339 334 336 344 335 331 331 333 332 326
235 240 240 241 233 233 233 232 230 228 229 229 229 226 223 221 220 218 218 222 220 221 227 234 245 248 222 271 265 140 297 297 313 318 317 308 324 327 318 318 318 320 321 321
228 234 235 236 236 233 234 230 230 230 228 228 225 226 229 231 226 219 222 224 225 224 226 241 239 242 235 256 250 213 272 286 293 296 301 302 316 302 312 309 313 316 317 317
232 235 236 238 235 237 232 233 230 229 230 228 229 232 235 235 227 223 223 230 235 234 220 236 242 237 233 253 241 239 230 268 280 283 287 303 302 298 312 305 308 312 308 313
238 243 241 240 238 239 239 236 228 226 229 233 232 238 242 243 238 233 230 233 238 226 226 237 240 237 235 242 247 225 248 252 266 276 279 285 288 300 296 298 303 300 304 306
250 247 249 249 249 247 244 240 230 232 232 235 237 240 242 239 241 239 240 242 243 236 241 241 237 236 235 241 244 237 243 256 257 267 272 278 286 291 295 302 299 298 300 299
251 254 254 254 256 268 252 234 237 236 236 236 237 241 242 244 245 244 242 243 236 230 236 243 238 235 236 238 246 248 244 254 263 272 276 282 284 290 296 297 292 294 298 297
265 257 259 264 262 255 243 239 240 240 240 239 243 248 245 242 244 250 254 250 245 234 233 239 237 233 238 241 247 250 249 254 261 268 274 277 287 294 297 295 297 298 292 294
267 272 275 269 262 254 257 259 241 233 232 232 236 243 252 246 244 251 253 249 245 235 234 236 241 239 240 241 245 250 253 256 260 266 272 282 290 297 300 302 299 297 296 296
275 272 269 265 261 259 256 252 241 235 229 229 232 236 244 251 245 239 246 243 238 238 237 235 239 239 237 240 244 247 252 256 260 266 273 281 289 296 301 303 301 300 298 297
283 282 277 271 264 256 257 251 245 241 236 232 237 240 246 245 241 238 242 236 228 236 237 238 242 242 237 240 241 244 249 253 257 263 270 280 289 296 303 306 303 300 298 298